E-ST@R-II (41459 NORAD) Tracking and Keplerian Element Data

This shows tracking and keplerian element data for the satellite.

Feedback or suggestion? Click here.




ElementValue
Catalog41459
NameE-ST@R-II
Epoch Orbit44289
Epoch Day126.07714411
Epoch Year2024
RAAN14.5477
Inclination98.0991
Eccentricity0.000712
Argument of Perigee232.8921
Mean Anonmoly127.1731
Mean Motion16.47786158
Decay Rate0.16156611
L11 41459U 16025D 24126.07714411 .16156611 31653-5 27264-3 0 9991
L22 41459 98.0991 14.5477 0007120 232.8921 127.1731 16.47786158442898



Live tracking and technical data element details for E-ST@R-II (NORAD 41459). E-ST@R-II can be tracked NOW for your location showing map with azimuth and elevation plus other details from your city location.







IsCatalogInMostPopularTable: catalog: 41459, numindb: 406
Update: records affected: 1



GetName: 41459 E-ST@R-II

Hit Count: updated at: Thu, 23 Jan 2025 17:10:28 GMT